UAE39TL VOBL-VRMM

Flight info

Callsign UAE39TL
Flight time 1h 38m
Altitude 38000
Route AKTIM8A AKTIM W118 CCB W43 DODSI Q13 TVM R457 MUGBA MUGBA2A
Aircraft B77W/H-SDE1E2E3FGHIJ2J3J4J5M1RWXY/LB1D1

Departure

Time 2026-05-08 10:41
Airport Kempegowda International Airport Bengaluru (VOBL)

Arrival

Time 2026-05-08 12:20
Airport Velana International Airport (VRMM)
Time Latitude Longitude Altitude Speed Heading
2026-05-08 09:59 13.20177 77.71063 2973 ft 0 kts 179°
2026-05-08 10:27 13.20179 77.71063 2972 ft 1 kts 179°
2026-05-08 10:27 13.20193 77.71063 2971 ft 2 kts 179°
2026-05-08 10:27 13.20209 77.71063 2970 ft 2 kts 180°
2026-05-08 10:27 13.20224 77.71065 2969 ft 2 kts 199°
2026-05-08 10:28 13.20237 77.71072 2969 ft 2 kts 217°
2026-05-08 10:28 13.20248 77.71082 2968 ft 2 kts 233°
2026-05-08 10:28 13.20256 77.71095 2968 ft 2 kts 249°
2026-05-08 10:28 13.20260 77.71110 2968 ft 2 kts 266°
2026-05-08 10:29 13.20260 77.71117 2968 ft 1 kts 271°
2026-05-08 10:29 13.20260 77.71119 2968 ft 0 kts 271°
2026-05-08 10:33 13.20260 77.71104 2968 ft 4 kts 271°
2026-05-08 10:33 13.20261 77.71059 2969 ft 8 kts 271°
2026-05-08 10:33 13.20260 77.70990 2971 ft 11 kts 268°
2026-05-08 10:33 13.20258 77.70910 2974 ft 11 kts 272°
2026-05-08 10:34 13.20261 77.70821 2976 ft 13 kts 271°
2026-05-08 10:34 13.20262 77.70721 2979 ft 14 kts 270°
2026-05-08 10:34 13.20263 77.70612 2981 ft 16 kts 270°
2026-05-08 10:34 13.20264 77.70490 2982 ft 17 kts 271°
2026-05-08 10:35 13.20270 77.70422 2984 ft 5 kts 296°
2026-05-08 10:35 13.20299 77.70402 2984 ft 5 kts 338°
2026-05-08 10:35 13.20348 77.70392 2986 ft 9 kts 355°
2026-05-08 10:35 13.20429 77.70393 2987 ft 12 kts
2026-05-08 10:36 13.20517 77.70369 2988 ft 14 kts 304°
2026-05-08 10:36 13.20532 77.70264 2991 ft 15 kts 270°
2026-05-08 10:36 13.20533 77.70143 2993 ft 17 kts 271°
2026-05-08 10:36 13.20535 77.70007 2993 ft 20 kts 270°
2026-05-08 10:37 13.20537 77.69849 2993 ft 23 kts 271°
2026-05-08 10:37 13.20537 77.69674 2994 ft 25 kts 271°
2026-05-08 10:37 13.20538 77.69497 2997 ft 22 kts 270°
2026-05-08 10:37 13.20540 77.69347 3000 ft 19 kts 271°
2026-05-08 10:38 13.20542 77.69224 3003 ft 15 kts 271°
2026-05-08 10:38 13.20541 77.69112 3005 ft 16 kts 270°
2026-05-08 10:38 13.20542 77.68992 3007 ft 17 kts 270°
2026-05-08 10:38 13.20543 77.68867 3009 ft 17 kts 271°
2026-05-08 10:39 13.20544 77.68746 3010 ft 12 kts 271°
2026-05-08 10:39 13.20546 77.68674 3011 ft 10 kts 275°
2026-05-08 10:39 13.20588 77.68623 3011 ft 10 kts 346°
2026-05-08 10:39 13.20667 77.68615 3011 ft 10 kts 356°
2026-05-08 10:40 13.20715 77.68645 3011 ft 7 kts 75°
2026-05-08 10:40 13.20716 77.68694 3011 ft 0 kts 90°
2026-05-08 10:40 13.20716 77.68826 3011 ft 52 kts 90°
2026-05-08 10:41 13.20711 77.69454 3003 ft 124 kts 90°
2026-05-08 10:41 13.20705 77.70554 3065 ft 178 kts 88°
2026-05-08 10:41 13.20712 77.71844 3746 ft 182 kts 82°
2026-05-08 10:41 13.21042 77.73040 4564 ft 177 kts 63°
2026-05-08 10:42 13.21648 77.74150 5135 ft 181 kts 60°
2026-05-08 10:42 13.22266 77.75270 5733 ft 182 kts 61°
2026-05-08 10:42 13.22894 77.76393 5909 ft 182 kts 61°
2026-05-08 10:42 13.23523 77.77513 5931 ft 180 kts 61°
2026-05-08 10:43 13.24148 77.78625 5936 ft 179 kts 61°
2026-05-08 10:43 13.24776 77.79743 5940 ft 179 kts 61°
2026-05-08 10:43 13.25401 77.80854 5943 ft 180 kts 61°
2026-05-08 10:43 13.26067 77.82040 5959 ft 211 kts 60°
2026-05-08 10:44 13.26769 77.83518 5973 ft 248 kts 75°
2026-05-08 10:44 13.26918 77.85343 5950 ft 264 kts 90°
2026-05-08 10:44 13.26869 77.87247 5941 ft 265 kts 90°
2026-05-08 10:44 13.26830 77.89069 5937 ft 251 kts 90°
2026-05-08 10:45 13.26805 77.90913 5946 ft 262 kts 89°
2026-05-08 10:45 13.26785 77.92790 5941 ft 266 kts 89°
2026-05-08 10:45 13.26766 77.94706 5938 ft 266 kts 89°
2026-05-08 10:45 13.26746 77.96605 5940 ft 265 kts 89°
2026-05-08 10:46 13.26727 77.98501 5939 ft 266 kts 89°
2026-05-08 10:46 13.26708 78.00422 6063 ft 280 kts 89°
2026-05-08 10:46 13.26689 78.02396 7054 ft 278 kts 89°
2026-05-08 10:46 13.26668 78.04363 7700 ft 277 kts 90°
2026-05-08 10:47 13.26305 78.06326 7930 ft 282 kts 112°
2026-05-08 10:47 13.25179 78.07941 7956 ft 283 kts 137°
2026-05-08 10:47 13.23436 78.08901 7950 ft 289 kts 164°
2026-05-08 10:47 13.21407 78.09096 7957 ft 293 kts 178°
2026-05-08 10:48 13.19353 78.09055 7962 ft 294 kts 179°
2026-05-08 10:48 13.17294 78.09007 7972 ft 294 kts 179°
2026-05-08 10:48 13.15231 78.08975 7971 ft 295 kts 179°
2026-05-08 10:48 13.13174 78.08771 7954 ft 296 kts 195°
2026-05-08 10:49 13.11371 78.07775 7957 ft 300 kts 221°
2026-05-08 10:49 13.10122 78.06004 8176 ft 315 kts 249°
2026-05-08 10:49 13.09549 78.03896 9250 ft 306 kts 260°
2026-05-08 10:49 13.09204 78.01789 10231 ft 303 kts 263°
2026-05-08 10:50 13.08906 77.99608 10820 ft 317 kts 263°
2026-05-08 10:50 13.08600 77.97285 10984 ft 346 kts 263°
2026-05-08 10:50 13.08259 77.94700 10992 ft 378 kts 263°
2026-05-08 10:50 13.07854 77.91986 10980 ft 391 kts 258°
2026-05-08 10:51 13.07108 77.89301 10978 ft 393 kts 253°
2026-05-08 10:51 13.06270 77.86614 10969 ft 395 kts 253°
2026-05-08 10:51 13.05435 77.83952 10968 ft 393 kts 253°
2026-05-08 10:51 13.04597 77.81273 10967 ft 393 kts 253°
2026-05-08 10:52 13.03739 77.78614 10962 ft 394 kts 249°
2026-05-08 10:52 13.02502 77.76091 10956 ft 395 kts 238°
2026-05-08 10:52 13.00813 77.73843 10955 ft 396 kts 227°
2026-05-08 10:52 12.98809 77.72011 10955 ft 396 kts 216°
2026-05-08 10:53 12.96382 77.70519 10960 ft 402 kts 205°
2026-05-08 10:53 12.93703 77.69575 11589 ft 409 kts 192°
2026-05-08 10:53 12.90936 77.69149 12703 ft 403 kts 186°
2026-05-08 10:53 12.88136 77.68829 13706 ft 403 kts 186°
2026-05-08 10:54 12.85336 77.68501 14529 ft 407 kts 186°
2026-05-08 10:54 12.82486 77.68155 15335 ft 413 kts 187°
2026-05-08 10:54 12.79659 77.67804 16193 ft 416 kts 187°
2026-05-08 10:54 12.76771 77.67439 17034 ft 418 kts 187°
2026-05-08 10:55 12.73837 77.67065 17806 ft 423 kts 188°
2026-05-08 10:55 12.70894 77.66686 18465 ft 429 kts 187°
2026-05-08 10:55 12.67908 77.66301 19106 ft 436 kts 188°
2026-05-08 10:55 12.64861 77.65906 19781 ft 441 kts 187°
2026-05-08 10:56 12.61795 77.65508 20441 ft 445 kts 187°
2026-05-08 10:56 12.58704 77.65107 21061 ft 450 kts 187°
2026-05-08 10:56 12.55579 77.64700 21660 ft 455 kts 187°
2026-05-08 10:56 12.52428 77.64291 22280 ft 458 kts 187°
2026-05-08 10:57 12.49267 77.63880 22909 ft 462 kts 187°
2026-05-08 10:57 12.46043 77.63460 23500 ft 466 kts 187°
2026-05-08 10:57 12.39557 77.62617 24724 ft 473 kts 187°
2026-05-08 10:58 12.36288 77.62192 25295 ft 477 kts 187°
2026-05-08 10:58 12.32978 77.61762 25883 ft 481 kts 187°
2026-05-08 10:58 12.29619 77.61325 26479 ft 485 kts 187°
2026-05-08 10:58 12.26255 77.60887 27068 ft 489 kts 187°
2026-05-08 10:59 12.22847 77.60445 27662 ft 493 kts 187°
2026-05-08 10:59 12.19424 77.60000 28237 ft 497 kts 187°
2026-05-08 10:59 12.15990 77.59554 28810 ft 501 kts 187°
2026-05-08 10:59 12.12532 77.59105 29475 ft 502 kts 187°
2026-05-08 11:00 12.09074 77.58627 30257 ft 500 kts 190°
2026-05-08 11:00 12.05680 77.57733 31153 ft 497 kts 199°
2026-05-08 11:00 12.02521 77.56369 32036 ft 493 kts 205°
2026-05-08 11:00 11.99483 77.54811 32880 ft 490 kts 206°
2026-05-08 11:01 11.96452 77.53232 33663 ft 489 kts 206°
2026-05-08 11:01 11.93416 77.51647 34425 ft 487 kts 206°
2026-05-08 11:01 11.90431 77.50091 35211 ft 485 kts 206°
2026-05-08 11:01 11.87394 77.48507 35954 ft 482 kts 205°
2026-05-08 11:02 11.84477 77.46986 36590 ft 481 kts 205°
2026-05-08 11:02 11.78427 77.43835 37715 ft 480 kts 205°
2026-05-08 11:02 11.75412 77.42264 37949 ft 483 kts 205°
2026-05-08 11:03 11.72365 77.40678 37949 ft 482 kts 205°
2026-05-08 11:03 11.66382 77.37564 37925 ft 482 kts 205°
2026-05-08 11:04 11.60394 77.34448 37886 ft 483 kts 205°
2026-05-08 11:04 11.54401 77.31332 37847 ft 483 kts 205°
2026-05-08 11:05 11.48381 77.28203 37810 ft 482 kts 205°
2026-05-08 11:05 11.42390 77.25091 37813 ft 482 kts 205°
2026-05-08 11:06 11.36379 77.21973 37829 ft 482 kts 205°
2026-05-08 11:06 11.30377 77.18864 37837 ft 482 kts 205°
2026-05-08 11:07 11.24416 77.15779 37834 ft 482 kts 205°
2026-05-08 11:07 11.18415 77.12674 37828 ft 483 kts 205°
2026-05-08 11:08 11.12363 77.09544 37825 ft 483 kts 205°
2026-05-08 11:08 11.06350 77.06485 37821 ft 481 kts 200°
2026-05-08 11:09 10.99867 77.04781 37823 ft 476 kts 183°
2026-05-08 11:09 10.93225 77.04384 37828 ft 473 kts 180°
2026-05-08 11:10 10.86618 77.04054 37826 ft 474 kts 180°
2026-05-08 11:10 10.79971 77.03726 37826 ft 473 kts 180°
2026-05-08 11:11 10.73339 77.03400 37829 ft 473 kts 180°
2026-05-08 11:11 10.66744 77.03078 37832 ft 474 kts 181°
2026-05-08 11:12 10.60158 77.02756 37850 ft 474 kts 181°
2026-05-08 11:12 10.53524 77.02432 37865 ft 474 kts 181°
2026-05-08 11:13 10.46914 77.02109 37880 ft 473 kts 180°
2026-05-08 11:13 10.40321 77.01788 37915 ft 473 kts 180°
2026-05-08 11:14 10.33713 77.01466 37954 ft 473 kts 180°
2026-05-08 11:14 10.27095 77.01143 37982 ft 473 kts 180°
2026-05-08 11:15 10.20514 77.00822 37989 ft 474 kts 181°
2026-05-08 11:15 10.13898 77.00500 37976 ft 472 kts 181°
2026-05-08 11:16 10.07266 77.00178 37947 ft 475 kts 181°
2026-05-08 11:16 10.00620 76.99854 37938 ft 475 kts 181°
2026-05-08 11:17 9.94014 76.99533 37928 ft 475 kts 180°
2026-05-08 11:17 9.87386 76.99213 37941 ft 473 kts 181°
2026-05-08 11:18 9.80809 76.98901 37945 ft 472 kts 181°
2026-05-08 11:18 9.74213 76.98589 37957 ft 473 kts 180°
2026-05-08 11:19 9.67587 76.98274 37951 ft 473 kts 180°
2026-05-08 11:19 9.60984 76.97961 37918 ft 473 kts 180°
2026-05-08 11:20 9.54370 76.97648 37896 ft 473 kts 180°
2026-05-08 11:20 9.47750 76.97331 37865 ft 474 kts 180°
2026-05-08 11:21 9.41151 76.97008 37868 ft 473 kts 180°
2026-05-08 11:21 9.34506 76.96683 37840 ft 473 kts 180°
2026-05-08 11:22 9.27894 76.96359 37833 ft 474 kts 180°
2026-05-08 11:22 9.21291 76.96037 37822 ft 473 kts 180°
2026-05-08 11:23 9.14720 76.95716 37814 ft 474 kts 180°
2026-05-08 11:23 9.08078 76.95393 37806 ft 474 kts 180°
2026-05-08 11:24 9.01479 76.95071 37798 ft 473 kts 180°
2026-05-08 11:24 8.94897 76.94750 37787 ft 473 kts 180°
2026-05-08 11:25 8.88244 76.94426 37787 ft 474 kts 180°
2026-05-08 11:25 8.81647 76.94104 37784 ft 473 kts 180°
2026-05-08 11:26 8.75086 76.93785 37782 ft 474 kts 180°
2026-05-08 11:26 8.68463 76.93462 37776 ft 474 kts 180°
2026-05-08 11:27 8.61851 76.93141 37776 ft 473 kts 180°
2026-05-08 11:27 8.55251 76.92820 37778 ft 473 kts 180°
2026-05-08 11:28 8.48744 76.91742 37772 ft 479 kts 196°
2026-05-08 11:28 8.42794 76.88662 37768 ft 486 kts 214°
2026-05-08 11:29 8.37442 76.84435 37768 ft 487 kts 216°
2026-05-08 11:29 8.32124 76.80170 37769 ft 487 kts 216°
2026-05-08 11:30 8.26802 76.75909 37767 ft 487 kts 216°
2026-05-08 11:30 8.21455 76.71631 37766 ft 488 kts 216°
2026-05-08 11:31 8.16126 76.67370 37766 ft 489 kts 216°
2026-05-08 11:31 8.10770 76.63090 37767 ft 490 kts 216°
2026-05-08 11:32 8.05398 76.58799 37767 ft 490 kts 216°
2026-05-08 11:32 8.00018 76.54504 37767 ft 489 kts 216°
2026-05-08 11:33 7.94673 76.50238 37767 ft 489 kts 216°
2026-05-08 11:33 7.89333 76.45977 37768 ft 490 kts 216°
2026-05-08 11:34 7.83962 76.41693 37769 ft 490 kts 216°
2026-05-08 11:34 7.78580 76.37402 37769 ft 491 kts 216°
2026-05-08 11:35 7.73230 76.33138 37762 ft 491 kts 216°
2026-05-08 11:35 7.67883 76.28877 37763 ft 491 kts 216°
2026-05-08 11:36 7.62495 76.24586 37768 ft 491 kts 216°
2026-05-08 11:36 7.57136 76.20319 37777 ft 490 kts 216°
2026-05-08 11:37 7.51750 76.16032 37783 ft 491 kts 216°
2026-05-08 11:37 7.46373 76.11753 37784 ft 490 kts 216°
2026-05-08 11:38 7.41007 76.07485 37785 ft 491 kts 216°
2026-05-08 11:38 7.35628 76.03207 37785 ft 492 kts 216°
2026-05-08 11:39 7.30226 75.98914 37784 ft 491 kts 216°
2026-05-08 11:39 7.24877 75.94662 37784 ft 490 kts 216°
2026-05-08 11:40 7.19521 75.90408 37783 ft 490 kts 216°
2026-05-08 11:40 7.14149 75.86141 37783 ft 490 kts 216°
2026-05-08 11:41 7.08754 75.81858 37786 ft 491 kts 216°
2026-05-08 11:41 7.03346 75.77566 37784 ft 490 kts 215°
2026-05-08 11:42 6.97978 75.73305 37785 ft 491 kts 215°
2026-05-08 11:42 6.92611 75.69048 37773 ft 489 kts 216°
2026-05-08 11:43 6.87244 75.64793 37773 ft 489 kts 216°
2026-05-08 11:43 6.81872 75.60534 37776 ft 489 kts 215°
2026-05-08 11:44 6.76526 75.56297 37775 ft 489 kts 215°
2026-05-08 11:44 6.71161 75.52047 37774 ft 489 kts 216°
2026-05-08 11:45 6.65806 75.47804 37773 ft 488 kts 215°
2026-05-08 11:45 6.60454 75.43568 37773 ft 488 kts 216°
2026-05-08 11:46 6.55112 75.39338 37775 ft 487 kts 216°
2026-05-08 11:46 6.49757 75.35101 37771 ft 487 kts 215°
2026-05-08 11:47 6.44436 75.30891 37764 ft 487 kts 215°
2026-05-08 11:47 6.39091 75.26662 37780 ft 486 kts 215°
2026-05-08 11:48 6.33757 75.22445 37783 ft 486 kts 215°
2026-05-08 11:48 6.28420 75.18225 37786 ft 485 kts 215°
2026-05-08 11:49 6.23099 75.14020 37781 ft 484 kts 215°
2026-05-08 11:49 6.17780 75.09818 37786 ft 485 kts 215°
2026-05-08 11:50 6.12505 75.05651 37782 ft 484 kts 215°
2026-05-08 11:50 6.07174 75.01440 37780 ft 482 kts 215°
2026-05-08 11:51 6.01851 74.97239 37785 ft 483 kts 215°
2026-05-08 11:51 5.96551 74.93040 37784 ft 484 kts 215°
2026-05-08 11:52 5.91273 74.88839 37786 ft 483 kts 216°
2026-05-08 11:52 5.85972 74.84621 37790 ft 484 kts 216°
2026-05-08 11:53 5.80645 74.80385 37787 ft 484 kts 216°
2026-05-08 11:53 5.75355 74.76180 37790 ft 485 kts 216°
2026-05-08 11:54 5.70042 74.71957 37789 ft 485 kts 216°
2026-05-08 11:54 5.64750 74.67752 37784 ft 485 kts 216°
2026-05-08 11:55 5.59464 74.63553 37790 ft 485 kts 216°
2026-05-08 11:55 5.54153 74.59335 37791 ft 486 kts 215°
2026-05-08 11:56 5.48848 74.55122 37786 ft 486 kts 216°
2026-05-08 11:56 5.43535 74.50911 37787 ft 487 kts 214°
2026-05-08 11:57 5.38062 74.46873 37788 ft 487 kts 213°
2026-05-08 11:57 5.32632 74.42896 37403 ft 480 kts 213°
2026-05-08 11:57 5.29903 74.40894 36425 ft 483 kts 214°
2026-05-08 11:58 5.27208 74.38915 35589 ft 483 kts 214°
2026-05-08 11:58 5.24472 74.36906 34811 ft 482 kts 214°
2026-05-08 11:58 5.21796 74.34939 33999 ft 482 kts 214°
2026-05-08 11:59 5.16362 74.30944 32304 ft 493 kts 214°
2026-05-08 11:59 5.13520 74.28856 31458 ft 512 kts 214°
2026-05-08 11:59 5.10631 74.26732 30528 ft 517 kts 215°
2026-05-08 11:59 5.07752 74.24614 29930 ft 510 kts 215°
2026-05-08 12:00 5.04910 74.22523 29442 ft 502 kts 215°
2026-05-08 12:00 5.02105 74.20459 28897 ft 496 kts 216°
2026-05-08 12:00 4.99327 74.18416 28314 ft 491 kts 216°
2026-05-08 12:00 4.96591 74.16404 27732 ft 487 kts 216°
2026-05-08 12:01 4.93882 74.14412 27141 ft 483 kts 216°
2026-05-08 12:01 4.91182 74.12427 26530 ft 480 kts 216°
2026-05-08 12:01 4.88490 74.10448 25920 ft 477 kts 217°
2026-05-08 12:01 4.85800 74.08470 25289 ft 474 kts 217°
2026-05-08 12:02 4.83179 74.06544 24671 ft 470 kts 217°
2026-05-08 12:02 4.80554 74.04615 24049 ft 467 kts 217°
2026-05-08 12:02 4.77934 74.02690 23415 ft 463 kts 217°
2026-05-08 12:02 4.75335 74.00781 22793 ft 459 kts 218°
2026-05-08 12:03 4.72768 73.98895 22162 ft 456 kts 218°
2026-05-08 12:03 4.70218 73.97021 21540 ft 452 kts 218°
2026-05-08 12:03 4.67693 73.95167 20914 ft 449 kts 217°
2026-05-08 12:03 4.65184 73.93323 20274 ft 446 kts 217°
2026-05-08 12:04 4.62700 73.91499 19639 ft 442 kts 217°
2026-05-08 12:04 4.60228 73.89683 19000 ft 439 kts 217°
2026-05-08 12:04 4.57747 73.87862 18350 ft 436 kts 217°
2026-05-08 12:04 4.55340 73.86095 17720 ft 433 kts 217°
2026-05-08 12:05 4.52922 73.84319 17079 ft 429 kts 217°
2026-05-08 12:05 4.50493 73.82536 16436 ft 426 kts 217°
2026-05-08 12:05 4.48138 73.80808 15807 ft 423 kts 217°
2026-05-08 12:05 4.45737 73.79083 15161 ft 420 kts 214°
2026-05-08 12:06 4.43151 73.77727 14522 ft 418 kts 203°
2026-05-08 12:06 4.40414 73.76867 13868 ft 416 kts 193°
2026-05-08 12:06 4.37525 73.76495 13114 ft 417 kts 183°
2026-05-08 12:06 4.34665 73.76455 12390 ft 404 kts 180°
2026-05-08 12:07 4.31906 73.76453 11980 ft 389 kts 180°
2026-05-08 12:07 4.29215 73.76454 11297 ft 388 kts 180°
2026-05-08 12:07 4.26490 73.76455 10768 ft 381 kts 180°
2026-05-08 12:07 4.23898 73.76457 10629 ft 365 kts 180°
2026-05-08 12:08 4.21416 73.76458 10473 ft 351 kts 180°
2026-05-08 12:08 4.19014 73.76459 10322 ft 337 kts 180°
2026-05-08 12:08 4.16689 73.76460 10223 ft 323 kts 180°
2026-05-08 12:08 4.14477 73.76461 10124 ft 310 kts 180°
2026-05-08 12:09 4.12352 73.76463 10004 ft 299 kts 180°
2026-05-08 12:09 4.10277 73.76463 9724 ft 297 kts 180°
2026-05-08 12:09 4.08206 73.76465 9359 ft 293 kts 180°
2026-05-08 12:09 4.06201 73.76466 9071 ft 284 kts 180°
2026-05-08 12:10 4.04208 73.76467 8634 ft 281 kts 180°
2026-05-08 12:10 4.02296 73.76468 8326 ft 274 kts 180°
2026-05-08 12:10 4.00395 73.76469 8018 ft 267 kts 180°
2026-05-08 12:10 3.98562 73.76421 7703 ft 261 kts 192°
2026-05-08 12:11 3.96912 73.75791 7410 ft 251 kts 218°
2026-05-08 12:11 3.95702 73.74558 7119 ft 246 kts 242°
2026-05-08 12:11 3.95119 73.72997 6823 ft 238 kts 265°
2026-05-08 12:11 3.94982 73.71377 6479 ft 234 kts 270°
2026-05-08 12:12 3.94929 73.69746 6149 ft 236 kts 272°
2026-05-08 12:12 3.94918 73.68087 5819 ft 236 kts 272°
2026-05-08 12:12 3.94916 73.66455 5490 ft 236 kts 272°
2026-05-08 12:12 3.94917 73.64818 5159 ft 235 kts 272°
2026-05-08 12:13 3.94915 73.63195 4822 ft 232 kts 272°
2026-05-08 12:13 3.94911 73.61588 4491 ft 229 kts 272°
2026-05-08 12:13 3.94909 73.60010 4164 ft 226 kts 272°
2026-05-08 12:13 3.94906 73.58478 4029 ft 218 kts 272°
2026-05-08 12:14 3.94902 73.56998 3982 ft 202 kts 272°
2026-05-08 12:14 3.94920 73.55630 3981 ft 193 kts 280°
2026-05-08 12:14 3.95359 73.54415 3955 ft 185 kts 306°
2026-05-08 12:14 3.96273 73.53517 3848 ft 183 kts 333°
2026-05-08 12:15 3.97498 73.53176 3692 ft 183 kts 352°
2026-05-08 12:15 3.98772 73.53120 3511 ft 182 kts 356°
2026-05-08 12:15 4.00046 73.53119 3325 ft 181 kts 357°
2026-05-08 12:15 4.01316 73.53122 3124 ft 183 kts 357°
2026-05-08 12:16 4.02599 73.53123 2903 ft 181 kts 356°
2026-05-08 12:16 4.03860 73.53122 2685 ft 179 kts 356°
2026-05-08 12:16 4.05108 73.53120 2469 ft 180 kts 356°
2026-05-08 12:16 4.06358 73.53119 2254 ft 179 kts 356°
2026-05-08 12:17 4.07572 73.53119 2019 ft 167 kts 356°
2026-05-08 12:17 4.08717 73.53116 1813 ft 159 kts 356°
2026-05-08 12:17 4.09795 73.53114 1624 ft 148 kts 355°
2026-05-08 12:17 4.10808 73.53112 1450 ft 145 kts 355°
2026-05-08 12:18 4.11825 73.53111 1269 ft 144 kts 355°
2026-05-08 12:18 4.12818 73.53110 1093 ft 143 kts 356°
2026-05-08 12:18 4.13827 73.53109 904 ft 142 kts 356°
2026-05-08 12:18 4.14809 73.53108 731 ft 142 kts 357°
2026-05-08 12:19 4.15818 73.53113 526 ft 145 kts 357°
2026-05-08 12:19 4.16833 73.53103 353 ft 146 kts 355°
2026-05-08 12:19 4.17852 73.53078 180 ft 146 kts 359°
2026-05-08 12:19 4.18870 73.53104 22 ft 143 kts 359°
2026-05-08 12:20 4.19709 73.53101 16 ft 92 kts
2026-05-08 12:20 4.20098 73.53101 14 ft 23 kts 359°
2026-05-08 12:20 4.20257 73.53098 14 ft 22 kts 358°
2026-05-08 12:20 4.20350 73.53080 14 ft 11 kts 313°
2026-05-08 12:21 4.20367 73.53030 14 ft 5 kts 274°
2026-05-08 12:21 4.20369 73.52988 14 ft 4 kts 271°
2026-05-08 12:21 4.20370 73.52960 15 ft 3 kts 271°
2026-05-08 12:21 4.20361 73.52923 15 ft 7 kts 239°
2026-05-08 12:22 4.20308 73.52899 16 ft 8 kts 185°
2026-05-08 12:22 4.20243 73.52898 17 ft 10 kts 181°
2026-05-08 12:22 4.20153 73.52898 17 ft 14 kts 178°
2026-05-08 12:22 4.20036 73.52902 17 ft 18 kts 179°
2026-05-08 12:23 4.19890 73.52904 17 ft 22 kts 179°
2026-05-08 12:23 4.19735 73.52905 17 ft 21 kts 180°
2026-05-08 12:23 4.19589 73.52908 18 ft 19 kts 179°
2026-05-08 12:23 4.19465 73.52909 19 ft 16 kts 179°
2026-05-08 12:24 4.19350 73.52911 20 ft 17 kts 178°
2026-05-08 12:24 4.19221 73.52914 20 ft 20 kts 179°
2026-05-08 12:24 4.19081 73.52917 21 ft 17 kts 179°
2026-05-08 12:24 4.18979 73.52920 22 ft 9 kts 179°
2026-05-08 12:25 4.18878 73.52921 21 ft 18 kts 179°
2026-05-08 12:25 4.18754 73.52922 21 ft 10 kts 180°
2026-05-08 12:25 4.18706 73.52916 21 ft 1 kts 217°
2026-05-08 12:25 4.18683 73.52891 21 ft 7 kts 237°
2026-05-08 12:26 4.18674 73.52851 21 ft 4 kts 262°
2026-05-08 12:26 4.18672 73.52821 21 ft 3 kts 268°
2026-05-08 12:26 4.18672 73.52809 21 ft 0 kts 269°
2026-05-08 12:29 4.18672 73.52804 21 ft 2 kts 269°
2026-05-08 12:29 4.18672 73.52792 21 ft 0 kts 270°